Flag for Germany Weather past 2 weeks in Osnabrück, Lower Saxony, Germany

Now
73 °F

Scattered clouds.


Feels Like: 77 °F
Forecast: 62 / 86 °F
Wind: 2 mph from North

Location: Muenster / Osnabrueck

Current Time: Aug 29, 2015 at 3:29:19 PM

Latest Report: Aug 29, 2015 at 2:50 PM


Visibility: N/A

Pressure: 30.18 "Hg

Humidity: 50%

Dew point: 54 °F

Location of OsnabrückLocation

Historic Weather in Osnabrück — Graph

°F

Osnabrück temperature yesterday

Maximum temperature yesterday: 70 °F (at 3:50 PM)
Minimum temperature yesterday: 54 °F (at 11:50 PM)
Average temperature yesterday: 61 °F

Past Weeks' High & Low Weather Summary

 TemperatureHumidityPressure
High79 °F (Aug 14, 1:20 PM)100% (Aug 14, 11:20 PM)30.27 "Hg (Aug 14, 11:20 PM)
Low50 °F (Aug 19, 6:20 AM)34% (Aug 23, 2:20 PM)29.53 "Hg (Aug 24, 5:20 PM)
Average64 °F79%29.94 "Hg
* Reported Aug 14 1:20 PM — Aug 29 1:50 PM, Osnabrück, Weather by CustomWeather, © 2015

Note: Actual official high and low records may vary slightly from our data, if they occured in-between our weather recording intervals... More about our weather records

Advertising

Osnabrück weather history for previous 24 hours

 ConditionsComfort  
Time TempWeatherWind HumidityBarometerVisibility
1:50 PM
Sat, Aug 29
72 °FScattered clouds.5 mph57%30.18 "HgN/A
1:20 PM72 °FScattered clouds.5 mph53%30.21 "HgN/A
12:50 PM70 °FScattered clouds.6 mph57%30.21 "HgN/A
11:50 AM68 °FPassing clouds.3 mph69%30.21 "HgN/A
11:20 AM68 °FPassing clouds.5 mph69%30.21 "HgN/A
10:50 AM66 °FPassing clouds.3 mph73%30.21 "HgN/A
9:20 AM59 °FPassing clouds.5 mph88%30.21 "HgN/A
8:50 AM57 °FClear.3 mph94%30.24 "Hg5 mi
7:50 AM54 °FFog.2 mph94%30.21 "Hg3 mi
7:20 AM52 °FFog.2 mph100%30.21 "Hg3 mi
6:50 AM50 °FCool.2 mph100%30.21 "Hg4 mi
6:20 AM50 °FFog.1 mph100%30.21 "Hg4 mi
5:50 AM52 °FFog.3 mph100%30.18 "Hg5 mi
5:20 AM52 °FFog.5 mph100%30.18 "HgN/A
4:50 AM50 °FFog.3 mph100%30.18 "HgN/A
4:20 AM50 °FFog.1 mph100%30.21 "HgN/A
3:50 AM50 °FFog.1 mph100%30.18 "HgN/A
3:20 AM50 °FFog.1 mph100%30.18 "HgN/A
2:50 AM52 °FFog.No wind100%30.18 "HgN/A
2:20 AM52 °FFog.3 mph100%30.18 "HgN/A
1:50 AM52 °FCool.1 mph100%30.18 "HgN/A
1:20 AM52 °FFog.2 mph100%30.18 "HgN/A
12:50 AM54 °FFog.1 mph94%30.18 "HgN/A
12:20 AM54 °FFog.2 mph100%30.18 "HgN/A
11:50 PM
Fri, Aug 28
54 °FClear.1 mph100%30.15 "Hg10 mi
11:20 PM55 °FClear.2 mph94%30.15 "Hg10 mi
10:50 PM55 °FClear.3 mph94%30.15 "Hg10 mi
10:20 PM55 °FClear.1 mph100%30.15 "Hg10 mi
9:50 PM57 °FClear.1 mph94%30.15 "Hg10 mi
9:20 PM57 °FSunny.No wind94%30.12 "Hg10 mi
8:50 PM61 °FSunny.2 mph83%30.12 "Hg10 mi
8:20 PM66 °FPartly sunny.5 mph64%30.12 "HgN/A
7:50 PM66 °FPartly sunny.6 mph68%30.09 "HgN/A
7:20 PM68 °FScattered clouds.8 mph60%30.09 "HgN/A
6:50 PM70 °FScattered clouds.9 mph57%30.09 "HgN/A
6:20 PM70 °FScattered clouds.7 mph57%30.09 "HgN/A
5:50 PM70 °FScattered clouds.9 mph57%30.09 "HgN/A
5:20 PM70 °FScattered clouds.9 mph57%30.09 "HgN/A
4:50 PM70 °FScattered clouds.8 mph57%30.07 "HgN/A
4:20 PM70 °FScattered clouds.9 mph53%30.07 "HgN/A
3:50 PM70 °FScattered clouds.9 mph53%30.07 "HgN/A
3:20 PM68 °FScattered clouds.7 mph64%30.07 "HgN/A
Weather by CustomWeather, © 2015

See weather overviewHow to use our weather pages